,,,PA_Meas_PMT16A,,PR_Meas_QMR101_102,,RH_Meas_QMH101,,SR_Meas_QMS101,,TA_Meas_QMH101,,GenWind,,GenWind,
date,time,status,PA,status,PR,status,RH,status,SR,status,TA,status,DirAvg,status,SpdAvg,
2010-06-06, 00:00:05,VALID,1005.24,VALID,0,VALID,97.909,VALID,0,VALID,24.1494,VALID,284,VALID,0,
2010-06-06, 00:01:05,VALID,1005.23,VALID,0,VALID,97.9167,VALID,0,VALID,24.1494,VALID,284,VALID,0,
2010-06-06, 00:02:05,VALID,1005.2,VALID,0,VALID,97.9167,VALID,0,VALID,24.1689,VALID,284,VALID,0,
2010-06-06, 00:03:05,VALID,1005.19,VALID,0,VALID,97.9014,VALID,0,VALID,24.2078,VALID,284,VALID,0,
2010-06-06, 00:04:05,VALID,1005.22,VALID,0,VALID,97.9014,VALID,0,VALID,24.1884,VALID,284,VALID,0,
2010-06-06, 00:05:05,VALID,1005.2,VALID,0,VALID,97.8862,VALID,0,VALID,24.2486,VALID,284,VALID,0,
2010-06-06, 00:06:05,VALID,1005.23,VALID,0,VALID,97.9167,VALID,0,VALID,24.2291,VALID,284,VALID,0,
2010-06-06, 00:07:05,VALID,1005.23,VALID,0,VALID,97.8785,VALID,0,VALID,24.2681,VALID,284,VALID,0,
2010-06-06, 00:08:05,VALID,1005.25,VALID,0,VALID,97.9014,VALID,0,VALID,24.2097,VALID,284,VALID,0,
2010-06-06, 00:09:05,VALID,1005.22,VALID,0,VALID,97.8938,VALID,0,VALID,24.2078,VALID,284,VALID,0,
2010-06-06, 00:10:05,VALID,1005.21,VALID,0,VALID,97.9167,VALID,0,VALID,24.1689,VALID,284,VALID,0,
2010-06-06, 00:11:05,VALID,1005.19,VALID,0,VALID,97.9243,VALID,0,VALID,24.1902,VALID,284,VALID,0,
2010-06-06, 00:12:05,VALID,1005.17,VALID,0,VALID,97.9319,VALID,0,VALID,24.1707,VALID,284,VALID,0,
2010-06-06, 00:13:05,VALID,1005.15,VALID,0,VALID,97.9472,VALID,0,VALID,24.1513,VALID,284,VALID,0,
2010-06-06, 00:14:05,VALID,1005.12,VALID,0,VALID,97.9319,VALID,0,VALID,24.13,VALID,314,VALID,0,
2010-06-06, 00:15:05,VALID,1005.09,VALID,0,VALID,97.9472,VALID,0,VALID,24.0716,VALID,337,VALID,0.277734,
2010-06-06, 00:16:05,VALID,1005.09,VALID,0,VALID,97.909,VALID,0,VALID,24.13,VALID,341,VALID,0.255469,
2010-06-06, 00:17:05,VALID,1005.02,VALID,0,VALID,97.9319,VALID,0,VALID,24.1513,VALID,341,VALID,0.450781,
2010-06-06, 00:18:05,VALID,1005.03,VALID,0,VALID,97.9472,VALID,0,VALID,24.091,VALID,341,VALID,0.412891,
2010-06-06, 00:19:05,VALID,1005.04,VALID,0,VALID,97.9625,VALID,0,VALID,24.0521,VALID,345,VALID,0.502734,
2010-06-06, 00:20:05,VALID,1005.02,VALID,0,VALID,97.9472,VALID,0,VALID,24.0734,VALID,345,VALID,0.532812,
2010-06-06, 00:21:05,VALID,1005,VALID,0,VALID,97.9472,VALID,0,VALID,24.0734,VALID,343,VALID,0.592188,
2010-06-06, 00:22:05,VALID,1004.98,VALID,0,VALID,97.9396,VALID,0,VALID,24.0326,VALID,343,VALID,0.377734,
2010-06-06, 00:23:05,VALID,1004.96,VALID,0,VALID,97.9396,VALID,0,VALID,24.0521,VALID,343,VALID,0.114453,
2010-06-06, 00:24:05,VALID,1004.95,VALID,0,VALID,97.9472,VALID,0,VALID,24.0716,VALID,343,VALID,0.210156,
2010-06-06, 00:25:05,VALID,1004.93,VALID,0,VALID,97.9319,VALID,0,VALID,24.091,VALID,343,VALID,0,
2010-06-06, 00:26:05,VALID,1004.92,VALID,0,VALID,97.9167,VALID,0,VALID,24.1513,VALID,343,VALID,0,
2010-06-06, 00:27:05,VALID,1004.89,VALID,0,VALID,97.8938,VALID,0,VALID,24.1707,VALID,343,VALID,0.10625,
2010-06-06, 00:28:05,VALID,1004.87,VALID,0,VALID,97.9243,VALID,0,VALID,24.1105,VALID,343,VALID,0.455078,
2010-06-06, 00:29:05,VALID,1004.85,VALID,0,VALID,97.9243,VALID,0,VALID,24.1513,VALID,343,VALID,0.499609,
2010-06-06, 00:30:05,VALID,1004.84,VALID,0,VALID,97.8785,VALID,0,VALID,24.1902,VALID,343,VALID,0.38125,
2010-06-06, 00:31:05,VALID,1004.82,VALID,0,VALID,97.8557,VALID,0,VALID,24.2486,VALID,343,VALID,0.0339844,
2010-06-06, 00:32:05,VALID,1004.84,VALID,0,VALID,97.8862,VALID,0,VALID,24.1689,VALID,344,VALID,0.324609,
2010-06-06, 00:33:05,VALID,1004.83,VALID,0,VALID,97.9014,VALID,0,VALID,24.1513,VALID,344,VALID,0.488281,
2010-06-06, 00:34:05,VALID,1004.85,VALID,0,VALID,97.909,VALID,0,VALID,24.1707,VALID,344,VALID,0.406641,
2010-06-06, 00:35:05,VALID,1004.81,VALID,0,VALID,97.9396,VALID,0,VALID,24.1123,VALID,344,VALID,0.0828125,
2010-06-06, 00:36:05,VALID,1004.84,VALID,0,VALID,97.9243,VALID,0,VALID,24.1513,VALID,344,VALID,0,
2010-06-06, 00:37:05,VALID,1004.81,VALID,0,VALID,97.8938,VALID,0,VALID,24.2097,VALID,345,VALID,0.000390625,
2010-06-06, 00:38:05,VALID,1004.76,VALID,0,VALID,97.9014,VALID,0,VALID,24.1707,VALID,344,VALID,0.429297,
2010-06-06, 00:39:05,VALID,1004.79,VALID,0,VALID,97.9319,VALID,0,VALID,24.091,VALID,344,VALID,0.496484,
2010-06-06, 00:40:05,VALID,1004.76,VALID,0,VALID,97.9319,VALID,0.100563,VALID,24.0521,VALID,344,VALID,0.431641,
2010-06-06, 00:41:05,VALID,1004.73,VALID,0,VALID,97.9472,VALID,0,VALID,24.0539,VALID,345,VALID,0.417969,
2010-06-06, 00:42:05,VALID,1004.71,VALID,0,VALID,97.9701,VALID,0,VALID,23.9742,VALID,345,VALID,0.484766,
2010-06-06, 00:43:05,VALID,1004.7,VALID,0,VALID,97.993,VALID,0,VALID,24.015,VALID,345,VALID,0.352734,
2010-06-06, 00:44:05,VALID,1004.68,VALID,0,VALID,97.9319,VALID,0,VALID,24.0539,VALID,344,VALID,0.408203,
2010-06-06, 00:45:05,VALID,1004.65,VALID,0,VALID,97.9243,VALID,0,VALID,24.0734,VALID,345,VALID,0.55625,
2010-06-06, 00:46:05,VALID,1004.65,VALID,0,VALID,97.9319,VALID,0,VALID,24.0734,VALID,353,VALID,0.56875,
2010-06-06, 00:47:05,VALID,1004.64,VALID,0,VALID,97.8862,VALID,0,VALID,24.0716,VALID,353,VALID,0.176172,
2010-06-06, 00:48:05,VALID,1004.6,VALID,0,VALID,97.8938,VALID,0,VALID,24.13,VALID,353,VALID,0,
2010-06-06, 00:49:05,VALID,1004.58,VALID,0,VALID,97.8785,VALID,0,VALID,24.13,VALID,353,VALID,0,
2010-06-06, 00:50:05,VALID,1004.55,VALID,0,VALID,97.8938,VALID,0,VALID,24.1318,VALID,353,VALID,0,
2010-06-06, 00:51:05,VALID,1004.51,VALID,0,VALID,97.9167,VALID,0,VALID,24.0929,VALID,353,VALID,0,
2010-06-06, 00:52:05,VALID,1004.55,VALID,0,VALID,97.9548,VALID,0,VALID,24.0521,VALID,353,VALID,0,
2010-06-06, 00:53:05,VALID,1004.51,VALID,0,VALID,97.9396,VALID,0,VALID,24.0345,VALID,353,VALID,0,
2010-06-06, 00:54:05,VALID,1004.52,VALID,0,VALID,97.9548,VALID,0,VALID,23.9955,VALID,353,VALID,0,
2010-06-06, 00:55:05,VALID,1004.52,VALID,0,VALID,97.9548,VALID,0,VALID,23.9761,VALID,353,VALID,0,
2010-06-06, 00:56:05,VALID,1004.51,VALID,0,VALID,97.9472,VALID,0,VALID,24.0345,VALID,353,VALID,0,
2010-06-06, 00:57:05,VALID,1004.5,VALID,0,VALID,97.9014,VALID,0,VALID,24.1105,VALID,353,VALID,0,
2010-06-06, 00:58:05,VALID,1004.53,VALID,0,VALID,97.8862,VALID,0,VALID,24.1689,VALID,353,VALID,0.236719,
2010-06-06, 00:59:05,VALID,1004.5,VALID,0,VALID,97.9014,VALID,0,VALID,24.1707,VALID,353,VALID,0.184375,
2010-06-06, 01:00:05,VALID,1004.52,VALID,0,VALID,97.9167,VALID,0,VALID,24.1689,VALID,353,VALID,0.0339844,
2010-06-06, 01:01:05,VALID,1004.5,VALID,0,VALID,97.8862,VALID,0,VALID,24.1902,VALID,320,VALID,0.634375,
2010-06-06, 01:02:05,VALID,1004.47,VALID,0,VALID,97.8328,VALID,0,VALID,24.2662,VALID,290,VALID,0.202344,
2010-06-06, 01:03:05,VALID,1004.46,VALID,0,VALID,97.848,VALID,0,VALID,24.307,VALID,337,VALID,0.378125,
2010-06-06, 01:04:05,VALID,1004.44,VALID,0,VALID,97.8404,VALID,0,VALID,24.3654,VALID,337,VALID,0.0140625,
2010-06-06, 01:05:05,VALID,1004.46,VALID,0,VALID,97.8175,VALID,0,VALID,24.4043,VALID,340,VALID,0.344922,
2010-06-06, 01:06:05,VALID,1004.45,VALID,0,VALID,97.8175,VALID,0,VALID,24.383,VALID,349,VALID,0.452734,
2010-06-06, 01:07:05,VALID,1004.44,VALID,0,VALID,97.8557,VALID,0,VALID,24.3052,VALID,349,VALID,0.446875,
2010-06-06, 01:08:05,VALID,1004.44,VALID,0,VALID,97.9167,VALID,0,VALID,24.1902,VALID,349,VALID,0.408594,
2010-06-06, 01:09:05,VALID,1004.42,VALID,0,VALID,97.9472,VALID,0,VALID,24.0929,VALID,349,VALID,0.541016,
2010-06-06, 01:10:05,VALID,1004.4,VALID,0,VALID,97.9548,VALID,0,VALID,24.015,VALID,349,VALID,0.414453,
2010-06-06, 01:11:05,VALID,1004.41,VALID,0,VALID,98.0006,VALID,0,VALID,23.9761,VALID,349,VALID,0.428906,
2010-06-06, 01:12:05,VALID,1004.41,VALID,0,VALID,98.0006,VALID,0,VALID,23.9177,VALID,349,VALID,0.367969,
2010-06-06, 01:13:05,VALID,1004.43,VALID,0,VALID,97.993,VALID,0,VALID,23.8982,VALID,349,VALID,0.489062,
2010-06-06, 01:14:05,VALID,1004.39,VALID,0,VALID,98.0235,VALID,0,VALID,23.8185,VALID,349,VALID,0.264062,
2010-06-06, 01:15:05,VALID,1004.41,VALID,0,VALID,98.0082,VALID,0,VALID,23.7991,VALID,349,VALID,0.220313,
2010-06-06, 01:16:05,VALID,1004.41,VALID,0,VALID,98.0082,VALID,0,VALID,23.8203,VALID,349,VALID,0.336328,
2010-06-06, 01:17:05,VALID,1004.4,VALID,0,VALID,98.0082,VALID,0,VALID,23.8009,VALID,349,VALID,0.457031,
2010-06-06, 01:18:05,VALID,1004.4,VALID,0,VALID,97.9853,VALID,0,VALID,23.7991,VALID,349,VALID,0.366016,
2010-06-06, 01:19:05,VALID,1004.37,VALID,0,VALID,98.0006,VALID,0,VALID,23.7796,VALID,349,VALID,0.436328,
2010-06-06, 01:20:05,VALID,1004.36,VALID,0,VALID,98.0235,VALID,0,VALID,23.7407,VALID,349,VALID,0.303906,
2010-06-06, 01:21:05,VALID,1004.35,VALID,0,VALID,98.0235,VALID,0,VALID,23.723,VALID,349,VALID,0.502734,
2010-06-06, 01:22:05,VALID,1004.35,VALID,0,VALID,98.0387,VALID,0,VALID,23.7035,VALID,349,VALID,0.416016,
2010-06-06, 01:23:05,VALID,1004.36,VALID,0,VALID,98.0387,VALID,0,VALID,23.6823,VALID,349,VALID,0.355078,
2010-06-06, 01:24:05,VALID,1004.35,VALID,0,VALID,98.0464,VALID,0,VALID,23.6646,VALID,349,VALID,0.392969,
2010-06-06, 01:25:05,VALID,1004.36,VALID,0,VALID,98.0235,VALID,0,VALID,23.6628,VALID,349,VALID,0.372656,
2010-06-06, 01:26:05,VALID,1004.34,VALID,0,VALID,98.0311,VALID,0,VALID,23.6841,VALID,349,VALID,0.367188,
2010-06-06, 01:27:05,VALID,1004.33,VALID,0,VALID,97.993,VALID,0,VALID,23.7619,VALID,349,VALID,0.226172,
2010-06-06, 01:28:05,VALID,1004.33,VALID,0,VALID,98.0006,VALID,0,VALID,23.7017,VALID,349,VALID,0.502734,
2010-06-06, 01:29:05,VALID,1004.31,VALID,0,VALID,98.0159,VALID,0,VALID,23.6823,VALID,349,VALID,0.537891,
2010-06-06, 01:30:05,VALID,1004.3,VALID,0,VALID,98.0159,VALID,0,VALID,23.7017,VALID,349,VALID,0.434375,
2010-06-06, 01:31:05,VALID,1004.29,VALID,0,VALID,97.9853,VALID,0,VALID,23.7619,VALID,349,VALID,0.278516,
2010-06-06, 01:32:05,VALID,1004.28,VALID,0,VALID,97.9777,VALID,0,VALID,23.7814,VALID,349,VALID,0.075,
2010-06-06, 01:33:05,VALID,1004.28,VALID,0,VALID,98.0082,VALID,0,VALID,23.7017,VALID,349,VALID,0.334766,
2010-06-06, 01:34:05,VALID,1004.25,VALID,0,VALID,98.054,VALID,0,VALID,23.6452,VALID,349,VALID,0.414453,
2010-06-06, 01:35:05,VALID,1004.26,VALID,0,VALID,98.054,VALID,0,VALID,23.6257,VALID,349,VALID,0.433594,
2010-06-06, 01:36:05,VALID,1004.25,VALID,0,VALID,98.0387,VALID,0,VALID,23.6257,VALID,349,VALID,0.398828,
2010-06-06, 01:37:05,VALID,1004.23,VALID,0,VALID,97.993,VALID,0,VALID,23.7035,VALID,340,VALID,0.359375,
2010-06-06, 01:38:05,VALID,1004.24,VALID,0,VALID,97.9319,VALID,0,VALID,23.8398,VALID,312,VALID,0.445313,
2010-06-06, 01:39:05,VALID,1004.21,VALID,0,VALID,97.9625,VALID,0,VALID,23.8185,VALID,323,VALID,0.3125,
2010-06-06, 01:40:05,VALID,1004.2,VALID,0,VALID,97.9472,VALID,0,VALID,23.8593,VALID,345,VALID,0.479688,
2010-06-06, 01:41:05,VALID,1004.15,VALID,0,VALID,97.9777,VALID,0,VALID,23.7814,VALID,345,VALID,0.482031,
2010-06-06, 01:42:05,VALID,1004.16,VALID,0,VALID,98.0082,VALID,0,VALID,23.7212,VALID,345,VALID,0.362891,
2010-06-06, 01:43:05,VALID,1004.16,VALID,0,VALID,98.0082,VALID,0,VALID,23.6823,VALID,345,VALID,0.3625,
2010-06-06, 01:44:05,VALID,1004.13,VALID,0,VALID,98.0006,VALID,0,VALID,23.6823,VALID,345,VALID,0,
2010-06-06, 01:45:05,VALID,1004.1,VALID,0,VALID,98.0006,VALID,0,VALID,23.7035,VALID,345,VALID,0,
2010-06-06, 01:46:05,VALID,1004.11,VALID,0,VALID,98.0082,VALID,0,VALID,23.7035,VALID,345,VALID,0.206641,
2010-06-06, 01:47:05,VALID,1004.09,VALID,0,VALID,98.0235,VALID,0,VALID,23.6628,VALID,345,VALID,0.333594,
2010-06-06, 01:48:05,VALID,1004.09,VALID,0,VALID,98.0006,VALID,0,VALID,23.6452,VALID,345,VALID,0.360156,
2010-06-06, 01:49:05,VALID,1004.09,VALID,0,VALID,98.0235,VALID,0,VALID,23.6257,VALID,347,VALID,0.530469,
2010-06-06, 01:50:05,VALID,1004.08,VALID,0,VALID,98.0387,VALID,0,VALID,23.6062,VALID,347,VALID,0.613281,
2010-06-06, 01:51:05,VALID,1004.09,VALID,0,VALID,98.0464,VALID,0,VALID,23.5655,VALID,347,VALID,0.665625,
2010-06-06, 01:52:05,VALID,1004.08,VALID,0,VALID,98.0311,VALID,0,VALID,23.6062,VALID,351,VALID,0.442187,
2010-06-06, 01:53:05,VALID,1004.11,VALID,0,VALID,98.0693,VALID,0,VALID,23.5071,VALID,352,VALID,0.409375,
2010-06-06, 01:54:05,VALID,1004.1,VALID,0,VALID,98.0311,VALID,0,VALID,23.5266,VALID,352,VALID,0.321094,
2010-06-06, 01:55:05,VALID,1004.13,VALID,0,VALID,98.0464,VALID,0.100563,VALID,23.5478,VALID,352,VALID,0.338281,
2010-06-06, 01:56:05,VALID,1004.13,VALID,0,VALID,98.0464,VALID,0,VALID,23.5071,VALID,352,VALID,0.221094,
2010-06-06, 01:57:05,VALID,1004.11,VALID,0,VALID,98.0387,VALID,0,VALID,23.5089,VALID,352,VALID,0.351563,
2010-06-06, 01:58:05,VALID,1004.08,VALID,0,VALID,98.0159,VALID,0,VALID,23.546,VALID,352,VALID,0.270703,
2010-06-06, 01:59:05,VALID,1004.08,VALID,0,VALID,98.0082,VALID,0,VALID,23.5655,VALID,352,VALID,0.291797,
2010-06-06, 02:00:05,VALID,1004.06,VALID,0,VALID,98.0006,VALID,0,VALID,23.5655,VALID,352,VALID,0.442187,
2010-06-06, 02:01:04,VALID,1004.04,VALID,0,VALID,98.0464,VALID,0.100563,VALID,23.5266,VALID,352,VALID,0.419531,
2010-06-06, 02:02:04,VALID,1004.03,VALID,0,VALID,98.054,VALID,0.100563,VALID,23.5071,VALID,352,VALID,0.64375,
2010-06-06, 02:03:04,VALID,1004.02,VALID,0,VALID,98.0387,VALID,0,VALID,23.4877,VALID,352,VALID,0.453906,
2010-06-06, 02:04:04,VALID,1003.98,VALID,0,VALID,98.0464,VALID,0.100563,VALID,23.4682,VALID,352,VALID,0.530859,
2010-06-06, 02:05:04,VALID,1003.94,VALID,0,VALID,98.0387,VALID,0.100563,VALID,23.4487,VALID,352,VALID,0.569531,
2010-06-06, 02:06:04,VALID,1003.96,VALID,0,VALID,98.0311,VALID,0,VALID,23.5089,VALID,352,VALID,0.474219,
2010-06-06, 02:07:04,VALID,1003.96,VALID,0,VALID,98.0464,VALID,0.100563,VALID,23.47,VALID,352,VALID,0.428125,
2010-06-06, 02:08:04,VALID,1003.92,VALID,0,VALID,98.0464,VALID,0.100563,VALID,23.4487,VALID,352,VALID,0.478125,
2010-06-06, 02:09:04,VALID,1003.89,VALID,0,VALID,98.0387,VALID,0.100563,VALID,23.447,VALID,352,VALID,0.355078,
2010-06-06, 02:10:04,VALID,1003.87,VALID,0,VALID,98.0235,VALID,0,VALID,23.4877,VALID,352,VALID,0.282813,
2010-06-06, 02:11:04,VALID,1003.85,VALID,0,VALID,98.054,VALID,0.100563,VALID,23.4487,VALID,352,VALID,0.556641,
2010-06-06, 02:12:04,VALID,1003.86,VALID,0,VALID,98.054,VALID,0.100563,VALID,23.3886,VALID,352,VALID,0.471875,
2010-06-06, 02:13:04,VALID,1003.84,VALID,0,VALID,98.054,VALID,0.100563,VALID,23.408,VALID,352,VALID,0.54375,
2010-06-06, 02:14:04,VALID,1003.84,VALID,0,VALID,98.0159,VALID,0.100563,VALID,23.4487,VALID,352,VALID,0.373437,
2010-06-06, 02:15:04,VALID,1003.84,VALID,0,VALID,98.0387,VALID,0.100563,VALID,23.4487,VALID,352,VALID,0.240625,
2010-06-06, 02:16:04,VALID,1003.84,VALID,0,VALID,98.0311,VALID,0.100563,VALID,23.4293,VALID,352,VALID,0.383594,
2010-06-06, 02:17:04,VALID,1003.78,VALID,0,VALID,98.0464,VALID,0.100563,VALID,23.4293,VALID,352,VALID,0.298047,
2010-06-06, 02:18:04,VALID,1003.8,VALID,0,VALID,98.0387,VALID,0.100563,VALID,23.4293,VALID,352,VALID,0.255859,
2010-06-06, 02:19:04,VALID,1003.76,VALID,0,VALID,98.0464,VALID,0.100563,VALID,23.4293,VALID,352,VALID,0.236328,
2010-06-06, 02:20:04,VALID,1003.75,VALID,0,VALID,98.0235,VALID,0.100563,VALID,23.4487,VALID,352,VALID,0.180859,
2010-06-06, 02:21:04,VALID,1003.76,VALID,0,VALID,98.0311,VALID,0,VALID,23.47,VALID,352,VALID,0.180469,
2010-06-06, 02:22:04,VALID,1003.77,VALID,0,VALID,98.0311,VALID,0.100563,VALID,23.4098,VALID,352,VALID,0.113672,
2010-06-06, 02:23:04,VALID,1003.76,VALID,0,VALID,98.054,VALID,0.100563,VALID,23.4098,VALID,352,VALID,0,
2010-06-06, 02:24:04,VALID,1003.71,VALID,0,VALID,98.0387,VALID,0.100563,VALID,23.4487,VALID,352,VALID,0.301562,
2010-06-06, 02:25:04,VALID,1003.7,VALID,0,VALID,98.0006,VALID,0,VALID,23.4877,VALID,352,VALID,0.408203,
2010-06-06, 02:26:04,VALID,1003.7,VALID,0,VALID,98.0311,VALID,0.100563,VALID,23.4682,VALID,352,VALID,0.379297,
2010-06-06, 02:27:04,VALID,1003.7,VALID,0,VALID,98.0082,VALID,0.100563,VALID,23.4682,VALID,352,VALID,0.361328,
2010-06-06, 02:28:04,VALID,1003.67,VALID,0,VALID,98.0159,VALID,0,VALID,23.4664,VALID,352,VALID,0.469141,
2010-06-06, 02:29:04,VALID,1003.7,VALID,0,VALID,98.0235,VALID,0.100563,VALID,23.4293,VALID,353,VALID,0.488281,
2010-06-06, 02:30:04,VALID,1003.69,VALID,0,VALID,98.0235,VALID,0,VALID,23.4487,VALID,353,VALID,0.329297,
2010-06-06, 02:31:04,VALID,1003.7,VALID,0,VALID,98.0082,VALID,0.100563,VALID,23.4487,VALID,353,VALID,0.372266,
2010-06-06, 02:32:04,VALID,1003.69,VALID,0,VALID,98.0159,VALID,0,VALID,23.4487,VALID,353,VALID,0.323438,
2010-06-06, 02:33:04,VALID,1003.7,VALID,0,VALID,98.0006,VALID,0,VALID,23.4877,VALID,353,VALID,0.233594,
2010-06-06, 02:34:04,VALID,1003.71,VALID,0,VALID,97.993,VALID,0.100563,VALID,23.4877,VALID,353,VALID,0.217969,
2010-06-06, 02:35:04,VALID,1003.75,VALID,0,VALID,98.0082,VALID,0,VALID,23.4877,VALID,353,VALID,0.283203,
2010-06-06, 02:36:04,VALID,1003.77,VALID,0,VALID,98.0006,VALID,0.100563,VALID,23.5053,VALID,353,VALID,0.174219,
2010-06-06, 02:37:04,VALID,1003.77,VALID,0,VALID,97.9853,VALID,0.100563,VALID,23.5266,VALID,353,VALID,0,
2010-06-06, 02:38:04,VALID,1003.78,VALID,0,VALID,98.0159,VALID,0.100563,VALID,23.4877,VALID,353,VALID,0,
2010-06-06, 02:39:04,VALID,1003.8,VALID,0,VALID,98.0464,VALID,0.100563,VALID,23.4487,VALID,353,VALID,0,
2010-06-06, 02:40:04,VALID,1003.82,VALID,0,VALID,98.0311,VALID,0,VALID,23.4293,VALID,353,VALID,0,
2010-06-06, 02:41:04,VALID,1003.81,VALID,0,VALID,97.9701,VALID,0,VALID,23.5071,VALID,353,VALID,0.345313,
2010-06-06, 02:42:04,VALID,1003.82,VALID,0,VALID,97.9472,VALID,0.100563,VALID,23.6044,VALID,353,VALID,0.516016,
2010-06-06, 02:43:04,VALID,1003.82,VALID,0,VALID,97.9701,VALID,0.100563,VALID,23.6239,VALID,353,VALID,0.590625,
2010-06-06, 02:44:04,VALID,1003.8,VALID,0,VALID,97.9853,VALID,0.100563,VALID,23.5248,VALID,353,VALID,0.560938,
2010-06-06, 02:45:04,VALID,1003.78,VALID,0,VALID,97.993,VALID,0.100563,VALID,23.5655,VALID,353,VALID,0.513672,
2010-06-06, 02:46:04,VALID,1003.79,VALID,0,VALID,97.9853,VALID,0.100563,VALID,23.546,VALID,353,VALID,0.475391,
2010-06-06, 02:47:04,VALID,1003.8,VALID,0,VALID,98.0159,VALID,0.100563,VALID,23.4859,VALID,353,VALID,0.533984,
2010-06-06, 02:48:04,VALID,1003.81,VALID,0,VALID,98.0159,VALID,0.100563,VALID,23.4487,VALID,353,VALID,0.351563,
2010-06-06, 02:49:04,VALID,1003.8,VALID,0,VALID,98.0311,VALID,0.100563,VALID,23.47,VALID,353,VALID,0.408594,
2010-06-06, 02:50:04,VALID,1003.81,VALID,0,VALID,98.0311,VALID,0.100563,VALID,23.3904,VALID,353,VALID,0.516797,
2010-06-06, 02:51:04,VALID,1003.82,VALID,0,VALID,98.0311,VALID,0.100563,VALID,23.3691,VALID,353,VALID,0.491406,
2010-06-06, 02:52:04,VALID,1003.86,VALID,0,VALID,97.993,VALID,0,VALID,23.4293,VALID,353,VALID,0.462891,
2010-06-06, 02:53:04,VALID,1003.85,VALID,0,VALID,98.0006,VALID,0.100563,VALID,23.4098,VALID,353,VALID,0.404687,
2010-06-06, 02:54:04,VALID,1003.85,VALID,0,VALID,97.9853,VALID,0.100563,VALID,23.4877,VALID,353,VALID,0.348047,
2010-06-06, 02:55:04,VALID,1003.87,VALID,0,VALID,97.9472,VALID,0.100563,VALID,23.585,VALID,353,VALID,0.399609,
2010-06-06, 02:56:04,VALID,1003.83,VALID,0,VALID,97.9319,VALID,0.100563,VALID,23.6239,VALID,353,VALID,0.176563,
2010-06-06, 02:57:04,VALID,1003.83,VALID,0,VALID,97.9472,VALID,0.100563,VALID,23.6239,VALID,353,VALID,0,
2010-06-06, 02:58:04,VALID,1003.83,VALID,0,VALID,97.9548,VALID,0.100563,VALID,23.6026,VALID,353,VALID,0,
2010-06-06, 02:59:04,VALID,1003.84,VALID,0,VALID,97.9777,VALID,0.100563,VALID,23.585,VALID,353,VALID,0,
2010-06-06, 03:00:04,VALID,1003.82,VALID,0,VALID,97.9701,VALID,0.100563,VALID,23.5266,VALID,353,VALID,0,
2010-06-06, 03:01:04,VALID,1003.85,VALID,0,VALID,97.993,VALID,0.100563,VALID,23.4877,VALID,353,VALID,0.112109,
2010-06-06, 03:02:04,VALID,1003.84,VALID,0,VALID,97.9548,VALID,0.100563,VALID,23.5266,VALID,353,VALID,0.557422,
2010-06-06, 03:03:04,VALID,1003.87,VALID,0,VALID,97.9548,VALID,0.100563,VALID,23.5284,VALID,353,VALID,0.6125,
2010-06-06, 03:04:04,VALID,1003.86,VALID,0,VALID,97.9777,VALID,0,VALID,23.5071,VALID,353,VALID,0.446094,
2010-06-06, 03:05:04,VALID,1003.86,VALID,0,VALID,97.9625,VALID,0.100563,VALID,23.4682,VALID,353,VALID,0.469922,
2010-06-06, 03:06:04,VALID,1003.86,VALID,0,VALID,97.9548,VALID,0.100563,VALID,23.546,VALID,353,VALID,0.244922,
2010-06-06, 03:07:04,VALID,1003.88,VALID,0,VALID,97.9396,VALID,0,VALID,23.546,VALID,353,VALID,0.552734,
2010-06-06, 03:08:04,VALID,1003.86,VALID,0,VALID,97.9853,VALID,0,VALID,23.447,VALID,353,VALID,0.505469,
2010-06-06, 03:09:04,VALID,1003.84,VALID,0,VALID,97.993,VALID,0.100563,VALID,23.4293,VALID,353,VALID,0.441016,
2010-06-06, 03:10:04,VALID,1003.84,VALID,0,VALID,97.9853,VALID,0.100563,VALID,23.4487,VALID,353,VALID,0.441797,
2010-06-06, 03:11:04,VALID,1003.83,VALID,0,VALID,97.993,VALID,0,VALID,23.4487,VALID,353,VALID,0.426953,
2010-06-06, 03:12:04,VALID,1003.82,VALID,0,VALID,97.9548,VALID,0.100563,VALID,23.4682,VALID,353,VALID,0.407031,
2010-06-06, 03:13:04,VALID,1003.83,VALID,0,VALID,97.9548,VALID,0,VALID,23.5284,VALID,353,VALID,0.357031,
2010-06-06, 03:14:04,VALID,1003.78,VALID,0,VALID,97.9548,VALID,0,VALID,23.447,VALID,353,VALID,0.433984,
2010-06-06, 03:15:04,VALID,1003.79,VALID,0,VALID,97.9777,VALID,0,VALID,23.4894,VALID,353,VALID,0.423828,
2010-06-06, 03:16:04,VALID,1003.78,VALID,0,VALID,97.993,VALID,0,VALID,23.4505,VALID,353,VALID,0.466406,
2010-06-06, 03:17:04,VALID,1003.79,VALID,0,VALID,97.993,VALID,0.100563,VALID,23.3886,VALID,353,VALID,0.502734,
2010-06-06, 03:18:04,VALID,1003.78,VALID,0,VALID,98.0006,VALID,0,VALID,23.3709,VALID,353,VALID,0.4125,
2010-06-06, 03:19:04,VALID,1003.78,VALID,0,VALID,98.0082,VALID,0,VALID,23.3709,VALID,353,VALID,0.477734,
2010-06-06, 03:20:04,VALID,1003.79,VALID,0,VALID,98.0082,VALID,0,VALID,23.4116,VALID,353,VALID,0.485547,
2010-06-06, 03:21:04,VALID,1003.82,VALID,0,VALID,97.9853,VALID,0,VALID,23.4116,VALID,353,VALID,0.376172,
2010-06-06, 03:22:04,VALID,1003.83,VALID,0,VALID,97.9853,VALID,0,VALID,23.3709,VALID,353,VALID,0.440234,
2010-06-06, 03:23:04,VALID,1003.87,VALID,0,VALID,98.0006,VALID,0,VALID,23.3709,VALID,353,VALID,0.504297,
2010-06-06, 03:24:04,VALID,1003.85,VALID,0,VALID,97.9853,VALID,0,VALID,23.3514,VALID,353,VALID,0.413672,
2010-06-06, 03:25:04,VALID,1003.89,VALID,0,VALID,97.9853,VALID,0,VALID,23.3532,VALID,353,VALID,0.166797,
2010-06-06, 03:26:04,VALID,1003.87,VALID,0,VALID,97.9777,VALID,0,VALID,23.3709,VALID,353,VALID,0.0367187,
2010-06-06, 03:27:04,VALID,1003.89,VALID,0,VALID,98.0159,VALID,0,VALID,23.3125,VALID,353,VALID,0.492578,
2010-06-06, 03:28:04,VALID,1003.86,VALID,0,VALID,98.0464,VALID,0,VALID,23.2541,VALID,353,VALID,0.539844,
2010-06-06, 03:29:04,VALID,1003.89,VALID,0,VALID,98.0235,VALID,0.100563,VALID,23.194,VALID,353,VALID,0.728906,
2010-06-06, 03:30:04,VALID,1003.9,VALID,0,VALID,98.0311,VALID,0,VALID,23.1957,VALID,353,VALID,0.688281,
2010-06-06, 03:31:04,VALID,1003.89,VALID,0,VALID,98.0387,VALID,0.100563,VALID,23.1957,VALID,353,VALID,0.628516,
2010-06-06, 03:32:04,VALID,1003.89,VALID,0,VALID,98.0464,VALID,0.100563,VALID,23.1763,VALID,353,VALID,0.466797,
2010-06-06, 03:33:04,VALID,1003.93,VALID,0,VALID,98.0464,VALID,0,VALID,23.1374,VALID,353,VALID,0.397656,
2010-06-06, 03:34:04,VALID,1003.95,VALID,0,VALID,98.0235,VALID,0,VALID,23.1763,VALID,353,VALID,0.0828125,
2010-06-06, 03:35:04,VALID,1003.97,VALID,0,VALID,98.0311,VALID,0.100563,VALID,23.1745,VALID,353,VALID,0,
2010-06-06, 03:36:04,VALID,1003.98,VALID,0,VALID,98.0311,VALID,0.100563,VALID,23.1568,VALID,353,VALID,0,
2010-06-06, 03:37:04,VALID,1003.99,VALID,0,VALID,98.0311,VALID,0.100563,VALID,23.1374,VALID,353,VALID,0,
2010-06-06, 03:38:04,VALID,1003.99,VALID,0,VALID,98.054,VALID,0.100563,VALID,23.1162,VALID,353,VALID,0,
2010-06-06, 03:39:04,VALID,1003.98,VALID,0,VALID,98.0464,VALID,0,VALID,23.1179,VALID,353,VALID,0,
2010-06-06, 03:40:04,VALID,1003.99,VALID,0,VALID,98.0464,VALID,0,VALID,23.1179,VALID,353,VALID,0,
2010-06-06, 03:41:04,VALID,1003.95,VALID,0,VALID,98.0387,VALID,0.100563,VALID,23.1179,VALID,353,VALID,0,
2010-06-06, 03:42:04,VALID,1003.96,VALID,0,VALID,98.0387,VALID,0,VALID,23.1374,VALID,353,VALID,0.466016,
2010-06-06, 03:43:04,VALID,1003.93,VALID,0,VALID,98.0159,VALID,0.100563,VALID,23.1568,VALID,353,VALID,0.401563,